VK6YY Weather Reports


time (UTC)temp
F
wind
direction
speed
knots
gust
knots
rain 1hr
in
rain 24hr
in
rain mn
in
humidity
%
barometer
mb
20260509024510 68 13 6.1 13.0 0.00 0.00 0.00 43 1025.2
20260509023006 67 9 5.2 16.5 0.00 0.00 0.00 44 1025.2
20260509021502 66 34 6.1 15.6 0.00 0.00 0.00 45 1025.4
20260509020058 66 33 3.5 10.4 0.00 0.00 0.00 47 1025.4
20260509014549 65 68 6.1 10.4 0.00 0.00 0.00 49 1025.3
20260509013053 64 5 5.2 11.3 0.00 0.00 0.00 50 1025.3
20260509011541 63 26 4.3 10.4 0.00 0.00 0.00 52 1025.5
20260509010038 62 55 2.6 10.4 0.00 0.00 0.00 54 1025.6
20260509004534 61 9 5.2 13.0 0.00 0.00 0.00 55 1025.6
20260509003024 60 70 4.3 9.6 0.00 0.00 0.00 57 1025.6
20260509001520 58 350 3.5 9.6 0.00 0.00 0.00 60 1025.6
20260509000014 57 13 2.6 7.8 0.00 0.00 0.00 61 1025.7
20260508234508 57 23 1.7 7.8 0.00 0.00 0.00 61 1025.5
20260508233007 56 59 2.6 10.4 0.00 0.00 0.00 61 1025.4
20260508231507 56 360 2.6 9.6 0.00 0.00 0.00 60 1025.4
20260508230002 56 11 2.6 9.6 0.00 0.00 0.00 60 1025.2
20260508224600 57 326 4.3 9.6 0.00 0.00 0.00 59 1025.2
20260508223055 57 28 4.3 7.8 0.00 0.00 0.00 59 1025.2
20260508221553 57 49 3.5 7.8 0.00 0.00 0.00 58 1025.1
20260508220050 58 5 3.5 9.6 0.00 0.00 0.00 58 1025.2
20260508214601 58 20 2.6 7.0 0.00 0.00 0.00 56 1025.3
20260508213041 58 24 5.2 10.4 0.00 0.00 0.00 56 1025.2
20260508211538 59 26 4.3 8.7 0.00 0.00 0.00 55 1025.1
20260508210038 59 23 4.3 7.8 0.00 0.00 0.00 55 1024.9
20260508204536 59 19 2.6 11.3 0.00 0.00 0.00 54 1024.7
20260508203003 59 24 2.6 9.6 0.00 0.00 0.00 54 1024.6
20260508201558 60 15 3.5 9.6 0.00 0.00 0.00 53 1024.4
20260508200052 60 17 2.6 7.8 0.00 0.00 0.00 52 1024.4
20260508194554 60 9 1.7 6.1 0.00 0.00 0.00 52 1024.4
20260508193102 60 13 2.6 6.1 0.00 0.00 0.00 52 1024.3
20260508191556 61 30 1.7 9.6 0.00 0.00 0.00 52 1024.1
20260508190103 60 355 3.5 10.4 0.00 0.00 0.00 52 1023.8
20260508184547 60 18 2.6 7.8 0.00 0.00 0.00 52 1023.9
20260508183059 60 69 1.7 6.1 0.00 0.00 0.00 53 1024.0
20260508181544 60 35 0.9 4.3 0.00 0.00 0.00 52 1024.2
20260508180056 60 46 0.9 4.3 0.00 0.00 0.00 51 1024.2
20260508174558 61 69 0.0 6.1 0.00 0.00 0.00 51 1024.3
20260508173041 61 21 0.0 5.2 0.00 0.00 0.00 51 1024.2
20260508171540 62 35 0.9 4.3 0.00 0.00 0.00 50 1024.0
20260508170041 62 123 0.9 5.2 0.00 0.00 0.00 48 1024.2
20260508164545 63 116 0.9 5.2 0.00 0.00 0.00 47 1024.3
20260508163037 63 84 0.9 5.2 0.00 0.00 0.00 46 1024.2
20260508161535 63 59 1.7 7.0 0.00 0.00 0.00 46 1024.2
20260508160035 64 75 1.7 5.2 0.00 0.00 0.00 45 1024.0
20260508154532 64 355 2.6 7.0 0.00 0.00 0.00 44 1024.0
20260508153039 64 30 2.6 6.1 0.00 0.00 0.00 44 1023.9
20260508151530 64 5 1.7 7.8 0.00 0.00 0.00 44 1024.0
20260508150029 64 20 0.9 6.1 0.00 0.00 0.00 44 1024.1
20260508144529 64 75 0.9 5.2 0.00 0.00 0.00 44 1024.2
20260508143025 64 38 0.9 2.6 0.00 0.00 0.00 45 1024.4
20260508141525 64 27 0.9 4.3 0.00 0.00 0.00 45 1024.3
20260508140024 64 5 0.9 4.3 0.00 0.00 0.00 46 1024.3
20260508134520 65 19 2.6 8.7 0.00 0.00 0.00 47 1024.1
20260508133020 65 39 1.7 6.1 0.00 0.00 0.00 48 1024.0
20260508131518 65 74 1.7 5.2 0.00 0.00 0.00 49 1024.1
20260508130029 65 74 1.7 5.2 0.00 0.00 0.00 49 1024.1
20260508124514 65 36 0.9 8.7 0.00 0.00 0.00 49 1024.1
20260508123017 65 71 1.7 7.0 0.00 0.00 0.00 49 1024.1
20260508121514 66 88 0.9 4.3 0.00 0.00 0.00 49 1024.1
20260508120058 66 65 0.9 4.3 0.00 0.00 0.00 48 1024.1
20260508114554 66 51 1.7 4.3 0.00 0.00 0.00 48 1023.9
20260508113041 67 71 1.7 4.3 0.00 0.00 0.00 47 1023.9
20260508111541 67 155 0.9 5.2 0.00 0.00 0.00 47 1024.0
20260508110037 67 86 1.7 5.2 0.00 0.00 0.00 46 1023.9
20260508104539 68 85 0.9 6.1 0.00 0.00 0.00 46 1024.1
20260508103010 68 63 0.9 5.2 0.00 0.00 0.00 45 1024.0
20260508101505 69 5 0.9 7.0 0.00 0.00 0.00 45 1023.9
20260508100108 69 82 0.9 5.2 0.00 0.00 0.00 46 1023.8
20260508094538 70 61 0.9 6.1 0.00 0.00 0.00 45 1023.7
20260508093040 71 46 0.9 7.0 0.00 0.00 0.00 44 1023.5
20260508091537 71 109 2.6 7.0 0.00 0.00 0.00 43 1023.4
20260508090035 73 87 3.5 7.0 0.00 0.00 0.00 42 1023.4
20260508084537 73 108 2.6 7.0 0.00 0.00 0.00 40 1023.2
20260508081526 74 55 1.7 7.0 0.00 0.00 0.00 39 1023.2
20260508080024 74 46 2.6 7.8 0.00 0.00 0.00 38 1023.3
20260508074524 74 346 2.6 10.4 0.00 0.00 0.00 38 1023.2
20260508071539 75 96 3.5 8.7 0.00 0.00 0.00 39 1023.2
20260508070038 74 355 2.6 7.0 0.00 0.00 0.00 40 1023.2
20260508064540 75 30 4.3 8.7 0.00 0.00 0.00 40 1023.2
20260508061549 75 113 2.6 7.8 0.00 0.00 0.00 39 1023.5
20260508060047 75 60 2.6 7.8 0.00 0.00 0.00 41 1023.8
20260508054544 74 35 0.9 7.8 0.00 0.00 0.00 43 1023.9
20260508053143 75 39 5.2 9.6 0.00 0.00 0.00 41 1024.1
20260508051525 73 81 2.6 7.8 0.00 0.00 0.00 46 1024.2
20260508050037 73 133 2.6 7.0 0.00 0.00 0.00 47 1024.6
20260508044527 72 11 2.6 10.4 0.00 0.00 0.00 48 1024.8
20260508043026 72 9 1.7 13.0 0.00 0.00 0.00 47 1025.0
20260508041522 72 209 1.7 10.4 0.00 0.00 0.00 48 1025.4
20260508040021 71 15 5.2 11.3 0.00 0.00 0.00 48 1025.7
20260508034547 70 31 3.5 13.0 0.00 0.00 0.00 49 1026.1
20260508033042 70 360 7.8 15.6 0.00 0.00 0.00 48 1026.3
20260508031507 70 30 4.3 11.3 0.00 0.00 0.00 50 1026.6
20260508030002 68 13 3.5 10.4 0.00 0.00 0.00 52 1026.8